Location: Kuffner-Sternwarte
(48.2130°N, 16.2960°E)
Time: 21:06:23
(UTC+02:00)

COROT - Pass Details

Date: 19 May 2018
Orbit: 599 x 890 km, 90.0° (Epoch: 13 August)

Event Time Altitude Azimuth Distance (km) Brightness Sun altitude
Rises 23:11:32 0° 349° (N) 2,996 10.6 -18.3°
Reaches altitude 10° 23:14:04 10° 335° (NNW) 2,122 9.6 -18.5°
Maximum altitude 23:17:44 23° 284° (WNW) 1,478 7.9 -18.7°
Drops below altitude 10° 23:21:36 10° 232° (SW) 2,251 8.3 -19.0°
Enters shadow 23:22:58 - 225° (SW) 2,714 8.6 -19.1°
